This is the latest recevied weather packets stored in our database for station/object KC4JIR. If no packets are shown the sender has not sent any weather packets the latest 10 day(s).
| Time | Temp. | Humidity | Pressure | Rain* | Wind** | Luminosity | Snow |
|---|---|---|---|---|---|---|---|
| 1777912537 | 23.89° C | 37% | 1015.2 hPa | 0 mm | - | 748 W/m² | - |
| 1777912234 | 23.89° C | 38% | 1015.5 hPa | 0 mm | - | 731 W/m² | - |
| 1777911930 | 22.78° C | 46% | 1015.4 hPa | 0 mm | - | 753 W/m² | - |
| 1777911626 | 22.78° C | 38% | 1015.6 hPa | 0 mm | - | 696 W/m² | - |
| 1777911322 | 22.78° C | 39% | 1015.7 hPa | 0 mm | - | 653 W/m² | - |
| 1777911020 | 23.33° C | 39% | 1015.9 hPa | 0 mm | - | 707 W/m² | - |
| 1777910718 | 23.89° C | 37% | 1015.9 hPa | 0 mm | - | 856 W/m² | - |
| 1777910414 | 22.78° C | 41% | 1016.1 hPa | 0 mm | - | 856 W/m² | - |
| 1777910110 | 22.78° C | 45% | 1016.2 hPa | 0 mm | - | 883 W/m² | - |
| 1777909809 | 22.78° C | 41% | 1016.1 hPa | 0 mm | - | 824 W/m² | - |
| 1777909504 | 22.78° C | 43% | 1016.3 hPa | 0 mm | - | 878 W/m² | - |
| 1777909202 | 22.78° C | 43% | 1016.3 hPa | 0 mm | - | 886 W/m² | - |
| 1777908900 | 22.22° C | 42% | 1016.3 hPa | 0 mm | - | 877 W/m² | - |
| 1777908597 | 22.22° C | 48% | 1016.3 hPa | 0 mm | - | 930 W/m² | - |
| 1777908294 | 22.22° C | 41% | 1016.4 hPa | 0 mm | - | 937 W/m² | - |
| 1777907990 | 22.22° C | 46% | 1016.5 hPa | 0 mm | - | 891 W/m² | - |
| 1777907686 | 21.67° C | 44% | 1016.4 hPa | 0 mm | - | 868 W/m² | - |
| 1777907381 | 21.11° C | 51% | 1016.3 hPa | 0 mm | - | 869 W/m² | - |
| 1777907078 | 21.11° C | 44% | 1016.7 hPa | 0 mm | - | 748 W/m² | - |
| 1777906776 | 21.11° C | 46% | 1016.6 hPa | 0 mm | - | 837 W/m² | - |
| 1777906472 | 21.11° C | 54% | 1016.6 hPa | 0 mm | - | 820 W/m² | - |
| 1777906169 | 21.11° C | 52% | 1016.6 hPa | 0 mm | - | 752 W/m² | - |
| 1777905866 | 20.56° C | 57% | 1016.7 hPa | 0 mm | - | 651 W/m² | - |
| 1777905563 | 20° C | 65% | 1016.6 hPa | 0 mm | - | 751 W/m² | - |
| 1777905260 | 19.44° C | 60% | 1016.5 hPa | 0 mm | - | 335 W/m² | - |
* Rain latest hour (hover to see other rain measurements)
** Current wind speed in m/s (hover to see current wind gust speed)